This demonstration page uses our WeatherBlox Daily Observations layout. Learn more.

38.88101, -77.10428

Hourly Observations for June 14, 2016

Temp ( °F °C ) Dew Point ( °F °C ) Humidity (%) Winds ( mph kmh ) Pressure ( in mb ) Visibility ( mi km ) Precip ( " mm )
12:52 am 00:52 Cloudy 75 23.9 55 12.8 50 50 NNW 8 13 29.88 1012 10 16.0934 0 0
1:52 am 01:52 Cloudy 74 23.3 53 11.7 48 48 NNW 12 19 29.89 1012 10 16.0934 0 0
2:52 am 02:52 Cloudy 73 22.8 53 11.7 50 50 NNW 9 15 29.89 1012 10 16.0934 0 0
3:52 am 03:52 Cloudy 72 22.2 52 11.1 50 50 NNW 12 19 29.9 1013 10 16.0934 0 0
4:52 am 04:52 Cloudy 72 22.2 51 10.6 48 48 NNW 12 19 29.92 1013 10 16.0934 0 0
5:52 am 05:52 Mostly Cloudy 71 21.7 50 10 47 47 N 15 24 29.95 1014 10 16.0934 0 0
6:52 am 06:52 Mostly Cloudy 70 21.1 50 10 49 49 N 14 22 29.96 1015 10 16.0934 0 0
7:52 am 07:52 Mostly Cloudy 71 21.7 50 10 47 47 NNE 14 22 29.98 1015 10 16.0934 0 0
8:52 am 08:52 Mostly Cloudy 72 22.2 50 10 46 46 NNE 13 20 30.01 1016 10 16.0934 0 0
9:52 am 09:52 Mostly Cloudy 73 22.8 50 10 44 44 N 8 13 30 1016 10 16.0934 0 0
10:52 am 10:52 Mostly Cloudy 75 23.9 49 9.4 40 40 N 10 17 30.01 1016 10 16.0934 0 0
11:52 am 11:52 Mostly Cloudy 76 24.4 45 7.2 33 33 NNE 7 11 30 1016 10 16.0934 0 0
12:52 pm 12:52 Mostly Cloudy 77 25 45 7.2 32 32 undefined N/A 30 1016 10 16.0934 0 0
1:52 pm 13:52 Partly Cloudy 78 25.6 48 8.9 35 35 ESE 7 11 29.98 1015 10 16.0934 0 0
2:52 pm 14:52 Partly Cloudy 78 25.6 47 8.3 33 33 SE 5 7 29.98 1015 10 16.0934 0 0
3:52 pm 15:52 Partly Cloudy 79 26.1 47 8.3 32 32 VRB 6 9 29.96 1015 10 16.0934 0 0
4:52 pm 16:52 Partly Cloudy 80 26.7 48 8.9 33 33 SE 5 7 29.96 1015 10 16.0934 0 0
5:52 pm 17:52 Partly Cloudy 80 26.7 48 8.9 33 33 SSW 7 11 29.94 1014 10 16.0934 0 0
6:52 pm 18:52 Partly Cloudy 79 26.1 49 9.4 35 35 SE 3 6 29.94 1014 10 16.0934 0 0
7:52 pm 19:52 Partly Cloudy 77 25 54 12.2 45 45 ESE 10 17 29.96 1015 10 16.0934 0 0
8:52 pm 20:52 Partly Cloudy 73 22.8 54 12.2 51 51 ESE 9 15 29.98 1015 10 16.0934 0 0
9:52 pm 21:52 Partly Cloudy 71 21.7 52 11.1 51 51 SSE 6 9 30.01 1016 10 16.0934 0 0
10:52 pm 22:52 Partly Cloudy 69 20.6 52 11.1 55 55 S 6 9 30.02 1017 10 16.0934 0 0
11:52 pm 23:52 Partly Cloudy 69 20.6 56 13.3 63 63 S 9 15 30.03 1017 10 16.0934 0 0

Powered by AerisWeather